"Pseudo-MPEC" for M14TLHe

Created 2018 Apr 24 11:18:04 UT using Find_Orb

Click here for an explanation of pseudo-MPECs

 
 Astrometry: 
     M14TLHe  C2018 04 16QyAstrometry+vI*uU]);0nh\Nj_KeH.x9gr=1#pyrs]nO`+XUMCC41
     M14TLHe  C2018 04 16R!hlLnWN/hD[+U_!%redacted;^NyBBNsee\'`7w34*hvop-CM1qC41
     M14TLHe  C2018 04 16wp\L+A^=vfy#MjU:$_][5RQBuX^a)51cL]IG]-dYt=7!-F;NEOCPC41

Station data:
(C41) MASTER-II Observatory, Kislovodsk  (N43.741685 E42.661260)  Russia.

Orbital elements:  M14TLHe
   Perigee 2018 Apr 23.798572 +/- 49 TT = 19:09:56 (JD 2458232.298572)
Epoch 2018 Apr 17.0 TT = JDT 2458225.5                        AutoNEOCP
M 310.00093 +/- 58                  (J2000 equator)
n   7.35434924 +/- 0.694            Peri.  266.31486 +/- 100
a565250.132 +/- 7.32e+7             Node   107.96582 +/- 70
e   0.9699438 +/- 0.273             Incl.  103.87278 +/- 23
P  48.95d                  H 23.9   G  0.15   U 12.5  SR
q 16989.2677 +/- 4.59e+7    Q 0.00744336 +/- 11.6
From 3 observations 2018 Apr. 16 (20.4 min); mean residual 0".54
Residuals in arcseconds: 
180416 C41  .51+  .19+    180416 C41  1.0-  .38-    180416 C41  .51+  .19+    

Ephemerides (geocentric):
Date (UTC) HH   RA              Dec         delta   r     elong  mag " sig PA
---- -- -- --  ------------   ------------  ------ ------ -----  --- ---- ---
2018 04 24 11  06 14 44.475   +47 41 45.58  163386 1.0052  61.8 13.8  40d  37
2018 04 24 12  06 12 53.001   +48 31 18.64  170217 1.0052  61.6 13.9  40d  38
2018 04 24 13  06 11 06.790   +49 16 58.24  176906 1.0052  61.5 14.0  39d  38
2018 04 24 14  06 09 25.292   +49 59 14.33  183463 1.0052  61.4 14.1  39d  39
2018 04 24 15  06 07 48.042   +50 38 31.74  189896 1.0052  61.2 14.2  39d  39
2018 04 24 16  06 06 14.642   +51 15 11.18  196212 1.0051  61.1 14.2  39d  40
2018 04 24 17  06 04 44.746   +51 49 30.15  202418 1.0051  61.1 14.3  38d  40
2018 04 24 18  06 03 18.055   +52 21 43.51  208519 1.0051  61.0 14.4  38d  41
2018 04 24 19  06 01 54.309   +52 52 03.98  214522 1.0051  60.9 14.4  38d  41
2018 04 24 20  06 00 33.276   +53 20 42.54  220430 1.0051  60.8 14.5  38d  41
2018 04 24 21  05 59 14.751   +53 47 48.71  226249 1.0051  60.7 14.6  38d  42
2018 04 24 22  05 57 58.555   +54 13 30.80  231983 1.0051  60.7 14.6  38d  42
2018 04 24 23  05 56 44.523   +54 37 56.10  237634 1.0051  60.6 14.7  38d  42
2018 04 25 00  05 55 32.510   +55 01 11.03  243208 1.0051  60.6 14.7  37d  43
2018 04 25 01  05 54 22.385   +55 23 21.27  248706 1.0051  60.5 14.8  37d  43
2018 04 25 02  05 53 14.029   +55 44 31.88  254133 1.0051  60.4 14.8  37d  43
2018 04 25 03  05 52 07.333   +56 04 47.36  259490 1.0050  60.4 14.9  37d  44
2018 04 25 04  05 51 02.200   +56 24 11.76  264781 1.0050  60.3 14.9  37d  44
2018 04 25 05  05 49 58.540   +56 42 48.71  270007 1.0050  60.3 15.0  37d  44
2018 04 25 06  05 48 56.270   +57 00 41.49  275172 1.0050  60.3 15.0  37d  44
2018 04 25 07  05 47 55.314   +57 17 53.06  280276 1.0050  60.2 15.1  37d  45
2018 04 25 08  05 46 55.604   +57 34 26.10  285323 1.0050  60.2 15.1  37d  45
2018 04 25 09  05 45 57.075   +57 50 23.06  290314 1.0050  60.1 15.2  37d  45
2018 04 25 10  05 44 59.667   +58 05 46.18  295251 1.0050  60.1 15.2  37d  45
2018 04 25 11  05 44 03.326   +58 20 37.48  300135 1.0050  60.1 15.2  37d  46
2018 04 25 12  05 43 08.000   +58 34 58.83  304968 1.0050  60.0 15.3  36d  46
2018 04 25 13  05 42 13.642   +58 48 51.96  309752 1.0050  60.0 15.3  36d  46
2018 04 25 14  05 41 20.208   +59 02 18.44  314488 1.0050  60.0 15.3  36d  46
2018 04 25 15  05 40 27.655   +59 15 19.72  319177 1.0050  59.9 15.4  36d  47
2018 04 25 16  05 39 35.947   +59 27 57.14  323821 1.0050  59.9 15.4  36d  47
2018 04 25 17  05 38 45.046   +59 40 11.96  328420 1.0050  59.9 15??  36d  47
2018 04 25 18  05 37 54.918   +59 52 05.32  332977 1.0049  59.8 15??  36d  47
2018 04 25 19  05 37 05.531   +60 03 38.29  337491 1.0049  59.8 15??  36d  48
2018 04 25 20  05 36 16.857   +60 14 51.88  341965 1.0049  59.8 15??  36d  48
2018 04 25 21  05 35 28.865   +60 25 47.00  346398 1.0049  59.8 15??  36d  48
2018 04 25 22  05 34 41.531   +60 36 24.52  350793 1.0049  59.7 15??  36d  48
2018 04 25 23  05 33 54.827   +60 46 45.25  355149 1.0049  59.7 15??  36d  48
2018 04 26 00  05 33 08.732   +60 56 49.95  359469 1.0049  59.7 15??  36d  49
2018 04 26 01  05 32 23.223   +61 06 39.32  363752 1.0049  59.7 15??  36d  49
2018 04 26 02  05 31 38.277   +61 16 14.03  368000 1.0049  59.6 15??  36d  49
2018 04 26 03  05 30 53.876   +61 25 34.70  372212 1.0049  59.6 15??  36d  49
2018 04 26 04  05 30 10.000   +61 34 41.91  376391 1.0049  59.6 15??  36d  49
2018 04 26 05  05 29 26.631   +61 43 36.22  380537 1.0049  59.6 15??  36d  49
2018 04 26 06  05 28 43.752   +61 52 18.15  384649 1.0049  59.5 15??  36d  50
2018 04 26 07  05 28 01.346   +62 00 48.18  388730 1.0049  59.5 15??  36d  50
2018 04 26 08  05 27 19.397   +62 09 06.78  392780 1.0049  59.5 15??  36d  50
2018 04 26 09  05 26 37.892   +62 17 14.38  396799 1.0049  59.5 15??  36d  50
2018 04 26 10  05 25 56.816   +62 25 11.40  400788 1.0049  59.4 15??  36d  50